Погода в Сухиничи

Хотите узнать прогноз погоды в Сухиничи? Тогда Вам сюда: Погода в Сухиничи

Поиск расширенной информации на нашем сайте:

Полезная информация:

Новости сайта



02.01.2020
Опубликован Долгосрочный прогноз погоды по городам России и ближнего зарубежья на январь 2020 года.
Карты: Прогноз на январь и февраль 2020 года, Сравнение прогнозируемой аномалии приземной температуры воздуха на январь 2020 года по разным моделям.




Погода в Сухиничи - сегодня

Время (UTC), дата Ветер
(°,м/с) 
Видим.   Явления Облачность Т
(°С)
Тd
(°С)
f(%) Тe
(°С)
Pmin
(гПа)
dP
(гПа)
Po
(мм)
O2
(г/м3)
Тmin Tmax R s Состояние
почвы
00 30.11.20 130 (ЮВ) 2000 м  в посл. час дождь  10/10 300 м 
[St]
+2.7 +2.1 96 +2  1025.1  0.2  747  298           
03 30.11.20 150 (ЮВ) 2000 м  слаб. дождь  10/10 300 м 
[Frnb|Ns]
+3 +2.1 94 +2  1024.6  -0.3  746  297  +1.3       
06 30.11.20 150 (ЮВ) 4000 м  слаб. дождь  10/10 300 м 
[Frnb|Ns]
+2.3 +1.4 94 +1  1025.5  0.8  747  298  +1.9       
09 30.11.20 170 (Ю) 4000 м  слаб. дождь  10/10 300 м 
[Frnb|Ns]
+2.3 +1.5 94 +2  1026.2  0.6  747  298           
12 30.11.20 тихо ()   4000 м  слаб. снег{дождь}  10/10 300 м 
[Frnb|Ns]
+0.1 -0.4 96 1026.9  0.5  748  301           
15 30.11.20 тихо ()   4000 м  слаб. снег  10/10 300 м 
[Frnb|Ns]
-0.1 -0.6 96 -0  1027.6  0.6  748  302         
18 30.11.20 тихо ()   4000 м  слаб. снег  10/10 300 м 
[Frnb|Ns]
-0.3 -0.9 96 -0  1027.8  0.3  748  302    +2.4     
21 30.11.20 тихо ()   2000 м  слаб. снег  10/10 300 м 
[Frnb|Ns]
-0.5 -1 96 -1  1028.2  0.2  749  302           
00 01.12.20 тихо ()   2000 м  слаб. снег  10/10 300 м 
[Frnb|Ns]
-1.2 -1.6 97 -1  1028.5  0.2  749  303           
03 01.12.20 тихо ()   2000 м  слаб. снег  10/10 300 м 
[Frnb|Ns]
-1.6 -2 97 -2  1028.5  0.1  749  304  -1.6       
06 01.12.20 тихо ()   2000 м  слаб. снег  10/10 300 м 
[Frnb|Ns]
-1.6 -2.2 96 -2  1029.6  750  304  -1.7    12  равномерный
сухой снег
100% 
09 01.12.20 160 (Ю) 2000 м  дымка{снег}  10/10 300 м 
[St]
-0.3 -0.9 96 1030.4  0.8  750  303           
12 01.12.20 140 (ЮВ) 4000 м  дымка{снег}  10/10 300 м 
[St]
-0.5 -1.4 94 1031  0.6  751  303           
15 01.12.20 140 (ЮВ) 4000 м  дымка  10/10 300 м 
[St]
-1 -1.7 95 1032.3  1.2  752  304         
21 01.12.20 120 (ЮВ) 4000 м  дымка  10/10 300 м 
[St]
-2.1 -3.1 93 -3  1034.4  0.9  753  306           
00 02.12.20 110 (В) 10 км    9/9 600 м 
[Sc]
-2.7 -4.3 89 -5  1034.8  0.3  753  307           
03 02.12.20 100 (В) 4000 м  дымка  9/8 2000 м средняя, верхняя 
[Ac As|Ci fib]
-4.9 -6.1 91 -6  1034.9  753  310  -4.9         
06 02.12.20 090 (В) 4000 м  дымка  9/0 верхняя 
[Ci fib]
-7 -7.8 94 -8  1035.5  0.3  753  312  -7.1      11  равномерный
сухой снег
100% 
09 02.12.20 100 (В) 10 км    8/8 600 м 
[Sc]
-5.4 -6.7 91 -8  1035.2  -0.2  753  310           
12 02.12.20 080 (В) 10 км    5/0 верхняя 
[Ci fib]
-5.2 -6.9 88 -7  1034.1  -1.1  752  310           
15 02.12.20 110 (В) 10 км    3/3 2000 м средняя 
[Ac trans]
-6.8 -8.3 89 -9  1033.8  -0.4  752  312           
18 02.12.20 110 (В) 10 км    9/0 средняя 
[Ac As]
-6 -7.8 87 -9  1033.3  -0.3  752  311    -5.1       
21 02.12.20 120 (ЮВ) 10 км    10/10 2000 м 
[Ns]
-5 -6.8 87 -7  1033.4  0.1  752  309           
00 03.12.20 130 (ЮВ) 10 км    10/10 2000 м 
[Ns]
-4.7 -6.6 87 -7  1033  -0.4  752  309           
03 03.12.20 130 (ЮВ) 10 км    10/0 средняя 
[As op]
-4.8 -6.8 86 -7  1032.2  -0.6  751  309  -7         
Время (UTC), дата Ветер
(°,м/с) 
Видим.   Явления Облачность Т
(°С)
Тd
(°С)
f(%) Тe
(°С)
Pmin
(гПа)
dP
(гПа)
Po
(мм)
O2
(г/м3)
Тmin Tmax R s Состояние
почвы

Для получения пояснительной информации подведите курсор к названию столбца.

ПОГОДА в Сухиничи - архив

Всё, что Вы хотите узнать о погоде в Сухиничи - удобно и подробно!

Выберите нужную дату (начиная с 1 января 2019* года) и нажмите кнопку "Найти".
Будут отображены архивные сводки погоды по пункту Сухиничи, начиная с указанной даты.


Отображать данные в формате CSV (для использования в таблицах Excel)


Внимание! Наш архив погоды предназначен исключительно для личного некоммерческого использования в познавательных целях. Если Вам необходимы официальные справки о состоянии погоды (для производственных, юридических, коммерческих и т.п. целей), обращайтесь в органы Росгидромета.

*Примечание: данная дата относится к архиву по метеостанциям СССР (Россия, СНГ, Балтия).
Архив по метеостанциям Зарубежной Европы и Азии (кроме Китая) хранится 10 дней, по другим регионам земного шара (Китай, Африка, Америка, Австралия, Океания) - 1 день.

Сухиничи - район местоположения метеостанции


Название, широта, долгота, высота метеостанции:
Сухиничи 54.1°ш. 35.3°д. 238 м над ур. моря [Российская Федерация]

Дополнительная информация

В oтличие oт бoльшинства пoгoдных сайтoв мы публикуем пoдрoбную метеoинфoрмацию в детальнoм прoфессиoнальнoм фoрмате.

Характеристики температуры и влажнoсти вoздуха измеряются на высoте 2 м в тени вдали oт зданий и деревьев.
Скoрoсть ветра измеряется на высoте 10 м (на урoвне рoста челoвека скoрoсть ветра ниже в 1.5-2 раза). Если метеoстанция нахoдится в гoрoде или в лесу, тo скoрoсть ветра занижена на 2-4 м/с пo сравнению с oткрытым местoм. Скoрoсть ветра над акватoриями крупных рек и oзёр, а также на вершинах хoлмoв на 2-5 м/с выше, чем в oбычных услoвиях.
Атмoсфернoе давление в разных тoчках местнoсти мoжет значительнo oтличаться oт давления на метеoстанции, в зависимoсти oт услoвий рельефа (при пoдъёме на 10 м давление пoнижается примернo на 1 мм рт.ст.).